www.pogodaiklimat.ru

Погода и климат >> Архив погоды >> Россия >> Чукотка >> Уэлен


ПОГОДА в Уэлене

АРХИВ ПОГОДЫ в Уэлене

Время (UTC), дата Ветер
(напр.,м/с)
 
Видим.   Явления Облачность Т
(С)
Тd
(С)
f
(%)
Тe
(С)
Тes
(С)
Комфортность P
(гПа)
Po
(гПа)
Тmin
(С)
Tmax
(С)
R
(мм)
R24
(мм)
S
(см)
00 12.12 С 14-17
{21}
1800 м слабый ливневой снег {метель} 10/10 300 м
[Cb cap]
-8.1 -9.9 87 -20 -20 1001.9 1001.0
03 12.12 СЗ 11-14
{18}
16 км сильный позёмок {ливн. осадки, метель} 10/10 300 м
[Cu Sc]
-7.4 -12.3 68 -18 -18 1001.0 1000.1
06 12.12 С 11-13
{16}
7000 м слабый ливневой снег {метель} 10/10 300 м
[Cb cap]
-7.0 -9.5 82 -17 -17 1000.8 999.9 -7.0 0.2
09 12.12 С 11-13
{15}
5000 м слабый ливневой снег {метель} 10/10 300 м
[Cb cap]
-6.4 -8.7 84 -17 -17 1000.9 1000.0
12 12.12 С 8
{13}
5000 м слабый ливневой снег {метель} 9/9 300 м
[Cb cap]
-6.6 -9.4 80 -16 -16 1001.0 1000.1
15 12.12 С 8
{11}
9000 м слабый ливневой снег {метель} 10/10 300 м
[Cb cap]
-6.0 -7.9 86 -15 -15 1000.8 999.9
18 12.12 С 7
{12}
24 км позёмок {ливн. осадки, метель} 10/10 300 м
[St]
-5.2 -8.9 75 -13 -13 1001.2 1000.3 -7.0 0.4 10
21 12.12 С 5
{9}
9000 м слабый ливневой снег {метель} 10/10 300 м
[Cb cap]
-4.3 -6.2 87 -11 -11 1001.6 1000.7
00 13.12 СЗ 6
{8}
20 км позёмок {ливн. осадки, метель} 9/9 300 м
[Cu Sc]
-3.6 -5.8 85 -11 -11 1000.4 999.5
03 13.12 СВ 6
{10}
24 км позёмок {ливн. осадки, метель} 9/9 300 м
[Cu Sc]
-3.2 -5.3 85 -11 -11 999.8 998.9
06 13.12 СВ 6
{10}
4800 м слабый ливневой снег {метель} 10/10 300 м
[Cb cap]
-2.3 -4.5 85 -9 -9 998.8 997.9 -2.2 0.3
09 13.12 В 3
{9}
7000 м слабый ливневой снег {метель} 10/10 300 м
[Cb cap]
-1.3 -3.3 86 -6 -6 997.4 996.5
12 13.12 С 5
{8}
9000 м слабый ливневой снег {метель} 8/6 300 м
[Cb cap Ci fib]
-1.1 -3.4 84 -7 -7 996.6 995.7
15 13.12 В 4
{10}
8000 м слабый ливневой снег {метель} 10/10 300 м
[Cb cap]
-0.6 -2.1 90 -6 -6 995.3 994.4
18 13.12 В 5
{9}
8000 м слабый ливневой снег {метель} 8/8 300 м
[Cb cap]
-0.4 -2.2 88 -7 -7 994.5 993.6 -2.3 0.7 14
21 13.12 штиль 0
{8}
9000 м слабый ливневой дождь со снегом {метель} 9/9 300 м
[Cb cap]
0.0 -1.7 88 -1 -1 994.8 993.9
00 14.12 СВ 5
{7}
18 км в посл. час ливневой снег {метель} 9/9 300 м
[Cu Sc]
+0.3 -2.4 82 -6 -6 994.2 993.3
03 14.12 В 5
{9}
17 км в посл. час туман {ливн. осадки} 10/10 300 м
[Cu Sc]
+0.2 -0.9 92 -6 -6 994.6 993.7
06 14.12 штиль 0
{5}
5000 м слабый ливневой снег {туман} 10/10 300 м
[Cb cap]
-0.8 -3.3 83 -2 -2 995.4 994.5 +0.6 0.5
09 14.12 штиль 0
{1}
6000 м слабый ливневой снег 10/10 300 м
[Cb cap]
-0.9 -2.5 89 -2 -2 995.2 994.3
12 14.12 штиль 0
{2}
5000 м слабый ливневой снег 10/10 300 м
[Cb cap]
-1.5 -3.2 88 -3 -3 995.8 994.9
15 14.12 СЗ 4
{8}
9000 м слабый ливневой снег 10/10 300 м
[Cb cap]
-2.4 -4.0 89 -8 -8 996.2 995.3
18 14.12 штиль 0
{7}
6000 м слабый ливневой снег {метель} 9/9 300 м
[Cb cap]
-3.8 -5.0 91 -5 -5 996.3 995.4 -3.8 2 18
21 14.12 Ю 1
{4}
7000 м слабый ливневой снег 10/10 300 м
[Cb cap]
-4.4 -6.4 86 -7 -7 996.7 995.8
00 15.12 Ю 5
{7}
8000 м слабый ливневой снег {метель} 9/9 300 м
[Cb cap]
-4.0 -5.5 89 -11 -11 997.2 996.3
03 15.12 Ю 9-10
{13}
24 км сильный позёмок {ливн. осадки, метель} 8/6 300 м
[St Ac trans Ci fib]
-7.1 -9.2 85 -17 -17 997.5 996.6
06 15.12 Ю 5
{12}
21 км позёмок {ливн. осадки, метель} 10/10 600 м
[Sc]
-6.2 -8.5 84 -14 -14 998.3 997.4 -3.6 0.4
09 15.12 В 1
{9}
9000 м слабый ливневой снег {метель} 10/10 300 м
[Cb cap]
-7.3 -9.4 85 -10 -10 999.3 998.4
12 15.12 ЮВ 4
{10}
9000 м слабый ливневой снег {метель} 10/10 300 м
[Cb cap]
-5.4 -9.2 75 -12 -12 999.7 998.8
15 15.12 ЮВ 2
{7}
28 км {ливн. осадки, метель} 10/10 600 м
[Sc]
-4.6 -9.4 69 -9 -9 999.8 998.9
18 15.12 ЮВ 3
{7}
26 км {ливн. осадки, метель} 10/10 600 м
[Sc]
-4.5 -8.4 74 -10 -10 999.2 998.3 -7.4 0.0 19
21 15.12 СВ 6
{9}
20 км позёмок {метель} 9/9 600 м
[Sc]
-3.6 -10.2 60 -11 -11 998.1 997.2
00 16.12 В 9-11
{11}
20 км сильный позёмок {ливн. осадки, метель} 10/10 300 м
[Cu Sc]
-3.8 -7.1 78 -13 -13 996.3 995.4
03 16.12 СВ 9-10
{14}
50 км сильный позёмок {метель} 9/9 300 м
[Cu Sc]
-3.3 -6.5 78 -12 -12 994.7 993.8
06 16.12 СВ 10-12
{14}
30 км сильный позёмок {метель} 10/10 600 м
[Sc]
-2.8 -6.6 75 -12 -12 993.2 992.3 -2.8 0.0
09 16.12 С 10-12
{14}
30 км сильный позёмок {метель} 10/10 600 м
[Sc]
-3.6 -8.0 71 -13 -13 992.3 991.4
12 16.12 С 11-13
{14}
35 км сильный позёмок {метель} 10/10 300 м
[St]
-4.0 -8.5 71 -13 -13 991.7 990.8
15 16.12 С 11-14
{16}
30 км сильный позёмок {метель} 10/10 300 м
[St]
-3.2 -7.1 74 -13 -13 990.9 990.0
18 16.12 С 9-12
{15}
40 км сильный позёмок {метель} 10/10 300 м
[St]
-3.6 -6.8 78 -12 -12 991.9 991.0 -4.0 18
21 16.12 С 10-12
{15}
20 км сильный позёмок {метель} 10/10 300 м
[St]
-4.9 -7.0 85 -15 -15 993.5 992.6
00 17.12 С 13-15
{17}
20 км сильный позёмок {метель} 10/10 300 м
[St]
-5.9 -7.4 89 -17 -17 994.5 993.6
03 17.12 С 11-13
{18}
24 км сильный позёмок {ливн. осадки, метель} 10/10 300 м
[St]
-6.5 -8.5 86 -17 -17 996.5 995.6
06 17.12 СЗ 9-11
{17}
9000 м слабый ливневой снег {метель} 10/10 300 м
[Cb cap]
-7.7 -11.2 76 -17 -17 997.4 996.5 -3.6 0.0
09 17.12 СЗ 6
{12}
8000 м слабый ливневой снег {метель} 10/10 300 м
[Cb cap]
-7.6 -9.8 84 -16 -16 999.5 998.6
12 17.12 СЗ 10-11
{12}
9000 м слабый ливневой снег {метель} 10/10 300 м
[Cb cap]
-7.4 -10.4 79 -18 -18 1001.1 1000.2
15 17.12 СЗ 7
{12}
9000 м слабый ливневой снег {метель} 10/10 300 м
[Cb cap]
-7.7 -9.9 84 -17 -17 1002.6 1001.7
18 17.12 СЗ 7
{11}
9000 м слабый ливневой снег {метель} 10/10 300 м
[Cb cap]
-8.0 -10.7 81 -17 -17 1004.1 1003.2 -8.1 0.3 19
21 17.12 СЗ 6
{10}
20 км позёмок {ливн. осадки, метель} 10/10 300 м
[Cu Sc]
-7.8 -10.9 78 -16 -16 1006.2 1005.3
00 18.12 СЗ 6
{9}
20 км позёмок {ливн. осадки, метель} 10/10 300 м
[Cu Sc]
-7.8 -10.5 81 -16 -16 1007.6 1006.7
03 18.12 Ю 3
{7}
6000 м слабый ливневой снег {метель} 10/10 300 м
[Cb cap]
-8.4 -10.7 83 -14 -14 1008.7 1007.8
06 18.12 Ю 2
{6}
9000 м слабый ливневой снег {метель} 10/10 300 м
[Cb cap]
-8.9 -10.9 85 -13 -13 1009.1 1008.2 -7.8 0.6
09 18.12 штиль 0
{4}
9000 м слабый ливневой снег 10/10 300 м
[Cb cap]
-8.8 -10.7 86 -9 -9 1009.3 1008.4
12 18.12 Ю 1
{3}
9000 м слабый ливневой снег 10/10 300 м
[Cb cap]
-8.8 -11.2 83 -11 -11 1008.4 1007.5
15 18.12 штиль 0
{5}
9000 м слабый ливневой снег 10/10 300 м
[Cb cap]
-6.4 -9.6 78 -7 -7 1005.9 1005.0
18 18.12 В 17-21
{23}
1200 м слабый ливневой снег {метель} 10/10 300 м
[Cb cap]
-5.2 -6.9 88 -17 -17 997.4 996.5 -9.2 0.5 21
21 18.12 В 17-19
{26}
800 м слабый ливневой снег {метель} 10/10 300 м
[Cb cap]
-4.2 -5.8 89 -16 -16 991.9 991.0

 

Местоположение метеостанции Уэлен (Чукотка, Россия): широта 66.16 долгота -169.00 высота над уровнем моря 7 м.

В архиве по умолчанию представлена погода в Уэлене за последнюю неделю. Архивные данные за месяц целиком и за предыдущие месяцы, начиная с января 2011 года, Вы можете получить, выбрав интересующий диапазон дат из раскрывающегося списка и нажав кнопку "Ввод!".

Внимание! Время в таблицах - всемирное. Для получения местного времени необходимо прибавить поправку, которая в Уэлене равна 12 ч.

Смотрите также архив погоды в соседних городах и на ближайших метеорологических станциях:

Погода на Мысе Ванкарем (Чукотка, Россия) (320 км)
Погода в Эгвекиноте (Чукотка, Россия) (448 км)
Погода на Мысе Шмидта (Чукотка, Россия) (520 км)
Погода на Острове Врангеля (Чукотка, Россия) (648 км)

Пояснения к столбцам:

Ветер - указаны скорость ветра в м/с - средняя за 10 мин, порывы в срок и между сроками (в фигурных скобках) и направление, откуда дует ветер: С - северный, СВ - северо-восточный, В - восточный, ЮВ - юго-восточный, Ю - южный, ЮЗ - юго-западный, З - западный, СЗ - северо-западный.
Видимость - горизонтальная дальность видимости в метрах или километрах. При видимости от 1 до 10 км при отсутствии осадков обычно наблюдается дымка, при ухудшении видимости до 1 км и менее - туман. В сухую погоду видимость может ухудшаться дымом, пылью или мглою.
Явления - указаны атмосферные явления, наблюдавшиеся в срок или в последний час перед сроком; фигурными скобками обозначены явления, наблюдавшиеся между сроками (за 1-3 часа до срока); квадратными скобками обозначены град или гололедные отложения с указанием их диаметра в мм.
Облачность - указаны через наклонную черту общая и нижняя облачность в баллах и высота нижней границы облаков в метрах; квадратными скобками обозначены формы облаков: Ci - перистые, Cs - перисто-слоистые, Cc - перисто-кучевые, Ac - высококучевые, As - высокослоистые, Sc - слоисто-кучевые, Ns - слоисто-дождевые, Cu - кучевые, Cb - кучево-дождевые. Подробнее классификацию облаков см. в Атласе облаков (PDF).
T - Температура воздуха - температура, измеренная на высоте 2 м над землей.
Td - Температура точки росы - температура, при понижении до которой содержащийся в воздухе водяной пар достигнет насыщения.
f - Относительная влажность воздуха - влажноcть воздуха, измеренная на высоте 2 м над землей.
Te - Эффективная температура - температура, которую ощущает одетый по сезону человек в тени. Характеристика душности погоды. При расчете учитывается влияние влажности воздуха и скорости ветра на теплоощущения человека.
Tes - Эффективная температура на солнце - температура, которую ощущает человек, с поправкой на солнечный нагрев. Характеристика знойности погоды. Зависит от высоты солнца над горизонтом, облачности и скорости ветра. Ночью, в пасмурную погоду, а также при ветре 12 м/с и более поправка равна нулю.
P - Атмосферное давление - приведенное к уровню моря атмосферное давление.
Po - Атмосферное давление - измеренное на уровне метеостанции атмосферное давление.
Tmin - Минимальная температура - минимум температуры воздуха на высоте 2 м над землей.
Tmax - Максимальная температура - максимум температуры воздуха на высоте 2 м над землей.
R - Количество осадков - Количество выпавших осадков за период времени, мм. При наведении курсора мыши на число - период времени, за который выпало указанное количество осадков.
R24 - Количество осадков - Количество выпавших осадков за 24 часа, мм.
S - Снежный покров - Высота снежного покрова, см. При наведении курсора мыши на число - состояние снежного покрова и степень покрытия местности в баллах.